Location: Ferintosh
(52.7647°N, 112.9692°W)
Time: 00:15:49
(UTC+00:00)

Vanguard 1 Rocket - Pass Details

Date: 20 May 2024
Orbit: 649 x 4221 km, 34.3° (Epoch: 13 June)

Event Time Altitude Azimuth Distance (km) Brightness Sun altitude
Rises 21:09:14 0° 259° (W) 6,041 12.0 52.1°
Reaches altitude 10° 21:15:16 10° 245° (WSW) 4,287 11.6 51.5°
Maximum altitude 21:21:47 18° 207° (SSW) 2,841 11.0 50.8°
Drops below altitude 10° 21:26:24 10° 165° (SSE) 2,877 10.4 50.3°
Sets 21:29:24 0° 145° (SE) 3,492 10.5 50.0°
